Albemarle, NC

3:29 AM EDT on August 25, 2019 (GMT -0400)
Stanly County

Weather History for KVUJ - July, 2019

Change the Weather History Date:

Sunday, July 21, 2019

  Actual Average (WUND) Record (WUND)
Temperature  
Mean Temperature 83 °F -  
Max Temperature 96 °F - - (-1)
Min Temperature 70 °F - - (-1)
Cooling Degree Days 18    
Growing Degree Days 33 (Base 50)    
Moisture  
Dew Point 70 °F    
Average Humidity 67    
Maximum Humidity 99    
Minimum Humidity 38    
Precipitation  
Precipitation 0.00 in - - ()
Sea Level Pressure  
Sea Level Pressure 30.04 in    
Wind  
Wind Speed 4 mph (SW)    
Max Wind Speed 14 mph    
Max Gust Speed 23 mph    
Visibility 10 miles    
Events      
Averages and records for this station are not official NWS values.
T = Trace of Precipitation, MM = Missing Value Source: NWS Daily Summary

Daily Weather History Graph

Daily Weather History Graph

Search for Another Location

Airport or City:

Astronomy

Jul. 21, 2019 Rise Set
Actual Time 6:20 AM EDT 8:32 PM EDT
Civil Twilight 5:52 AM EDT 9:01 PM EDT
Nautical Twilight 5:16 AM EDT 9:36 PM EDT
Astronomical Twilight 4:38 AM EDT 10:14 PM EDT
Moon 11:35 PM EDT (7/21) 10:32 AM EDT (7/21)
Length of Visible Light 15h 09m
Length of Day
14h 11m
Waning Gibbous, 80% of the Moon is Illuminated
Jul 21
Waning Gibbous
Jul 24
Last Quarter
Jul 31
New
Aug 7
First Quarter
Aug 15
Full

Hourly Weather History & Observations

Time (EDT) Temp. Heat Index Dew Point Humidity Pressure Visibility Wind Dir Wind Speed Gust Speed Precip Events Conditions
12:00 AM 78.4 °F - 73.9 °F 86% 30.07 in 10.0 mi Calm Calm - N/A   Clear
12:20 AM 77.7 °F - 73.2 °F 86% 30.07 in 10.0 mi SW 4.6 mph - N/A   Clear
12:40 AM 78.3 °F - 72.5 °F 82% 30.07 in 10.0 mi Calm Calm - N/A   Clear
1:00 AM 75.6 °F - 73.0 °F 92% 30.07 in 10.0 mi Calm Calm - N/A   Clear
1:20 AM 75.7 °F - 72.3 °F 89% 30.07 in 10.0 mi Calm Calm - N/A   Clear
1:40 AM 74.7 °F - 72.5 °F 93% 30.07 in 10.0 mi Calm Calm - N/A   Clear
2:00 AM 75.2 °F - 71.8 °F 89% 30.06 in 10.0 mi Calm Calm - N/A   Clear
2:20 AM 74.5 °F - 71.8 °F 91% 30.06 in 10.0 mi Calm Calm - N/A   Clear
2:40 AM 73.6 °F - 71.8 °F 94% 30.05 in 10.0 mi Calm Calm - N/A   Clear
3:00 AM 73.8 °F - 72.0 °F 94% 30.04 in 10.0 mi Calm Calm - N/A   Clear
3:20 AM 72.1 °F - 71.1 °F 96% 30.05 in 10.0 mi Calm Calm - N/A   Clear
3:40 AM 72.0 °F - 70.9 °F 96% 30.04 in 10.0 mi Calm Calm - N/A   Clear
4:00 AM 72.1 °F - 71.1 °F 96% 30.04 in 10.0 mi Calm Calm - N/A   Clear
4:20 AM 72.0 °F - 71.2 °F 98% 30.04 in 10.0 mi Calm Calm - N/A   Clear
4:40 AM 72.5 °F - 71.6 °F 97% 30.05 in 10.0 mi Calm Calm - N/A   Clear
5:00 AM 71.1 °F - 70.5 °F 98% 30.04 in 10.0 mi Calm Calm - N/A   Clear
5:20 AM 71.6 °F - 70.9 °F 98% 30.04 in 10.0 mi Calm Calm - N/A   Clear
5:40 AM 71.4 °F - 71.1 °F 99% 30.05 in 10.0 mi Calm Calm - N/A   Clear
6:00 AM 70.9 °F - 70.7 °F 99% 30.05 in 10.0 mi Calm Calm - N/A   Clear
6:20 AM 70.5 °F - 70.2 °F 99% 30.05 in 10.0 mi Calm Calm - N/A   Clear
6:40 AM 70.9 °F - 70.0 °F 97% 30.05 in 10.0 mi Calm Calm - N/A   Clear
7:00 AM 71.4 °F - 70.5 °F 97% 30.05 in 10.0 mi Calm Calm - N/A   Clear
7:20 AM 72.5 °F - 71.2 °F 96% 30.06 in 10.0 mi Calm Calm - N/A   Clear
7:40 AM 75.7 °F - 73.0 °F 91% 30.06 in 10.0 mi Calm Calm - N/A   Clear
8:00 AM 77.2 °F - 73.6 °F 89% 30.07 in 10.0 mi Calm Calm - N/A   Clear
8:20 AM 78.8 °F - 73.8 °F 84% 30.07 in 10.0 mi SW 5.8 mph - N/A   Clear
8:40 AM 80.2 °F 84.9 °F 73.9 °F 81% 30.07 in 10.0 mi SSW 5.8 mph - N/A   Clear
9:00 AM 82.2 °F 88.3 °F 74.1 °F 76% 30.08 in 10.0 mi WSW 5.8 mph - N/A   Clear
9:20 AM 84.4 °F 91.7 °F 74.1 °F 71% 30.08 in 10.0 mi SW 4.6 mph - N/A   Clear
9:40 AM 85.8 °F 92.6 °F 73.0 °F 65% 30.08 in 10.0 mi WSW 8.1 mph - N/A   Clear
10:00 AM 87.1 °F 92.8 °F 71.2 °F 59% 30.08 in 10.0 mi WSW 11.5 mph 16.1 mph N/A   Clear
10:20 AM 88.2 °F 95.5 °F 72.5 °F 60% 30.07 in 10.0 mi WSW 9.2 mph - N/A   Clear
10:40 AM 88.2 °F 94.6 °F 71.6 °F 58% 30.07 in 10.0 mi West 5.8 mph 16.1 mph N/A   Clear
11:00 AM 89.2 °F 94.9 °F 70.9 °F 54% 30.07 in 10.0 mi West 10.4 mph 17.3 mph N/A   Clear
11:20 AM 89.6 °F 94.7 °F 69.8 °F 52% 30.07 in 10.0 mi SW 9.2 mph - N/A   Clear
11:40 AM 90.7 °F 95.9 °F 70.0 °F 50% 30.07 in 10.0 mi WSW 10.4 mph 17.3 mph N/A   Clear
12:00 PM 91.4 °F 96.8 °F 69.8 °F 49% 30.07 in 10.0 mi West 11.5 mph 19.6 mph N/A   Clear
12:20 PM 92.1 °F 97.2 °F 69.1 °F 47% 30.07 in 10.0 mi WSW 10.4 mph 18.4 mph N/A   Clear
12:40 PM 91.9 °F 96.9 °F 69.1 °F 47% 30.06 in 10.0 mi SW 8.1 mph 23.0 mph N/A   Clear
1:00 PM 92.3 °F 96.1 °F 67.8 °F 44% 30.06 in 10.0 mi WSW 9.2 mph 17.3 mph N/A   Clear
1:20 PM 93.4 °F 98.1 °F 68.4 °F 44% 30.06 in 10.0 mi WSW 12.7 mph 19.6 mph N/A   Clear
1:40 PM 93.9 °F 98.0 °F 67.5 °F 42% 30.05 in 10.0 mi West 9.2 mph 19.6 mph N/A   Clear
2:00 PM 94.1 °F 97.9 °F 67.3 °F 41% 30.05 in 10.0 mi SW 13.8 mph - N/A   Clear
2:20 PM 94.6 °F 98.3 °F 66.9 °F 40% 30.04 in 10.0 mi SW 12.7 mph 18.4 mph N/A   Clear
2:40 PM 95.0 °F 99.5 °F 68.0 °F 41% 30.03 in 10.0 mi WSW 12.7 mph - N/A   Clear
3:00 PM 95.0 °F 99.0 °F 66.9 °F 40% 30.03 in 10.0 mi WSW 11.5 mph 17.3 mph N/A   Clear
3:20 PM 95.7 °F 99.8 °F 67.3 °F 39% 30.02 in 10.0 mi WSW 9.2 mph 20.7 mph N/A   Clear
3:40 PM 96.1 °F 99.9 °F 66.9 °F 38% 30.02 in 10.0 mi SW 11.5 mph 18.4 mph N/A   Scattered Clouds
4:00 PM 95.4 °F 98.6 °F 66.4 °F 38% 30.01 in 10.0 mi WSW 8.1 mph 20.7 mph N/A   Scattered Clouds
4:20 PM 96.1 °F 100.5 °F 67.6 °F 39% 30.01 in 10.0 mi SW 13.8 mph 18.4 mph N/A   Clear
4:40 PM 95.5 °F 98.9 °F 66.4 °F 38% 30.02 in 10.0 mi West 13.8 mph 17.3 mph N/A   Clear
5:00 PM 95.4 °F 99.1 °F 66.9 °F 39% 30.01 in 10.0 mi West 9.2 mph 17.3 mph N/A   Clear
5:20 PM 94.8 °F 98.1 °F 66.6 °F 39% 30.01 in 10.0 mi SW 9.2 mph 17.3 mph N/A   Clear
5:40 PM 95.0 °F 99.0 °F 67.5 °F 40% 30.00 in 10.0 mi SW 11.5 mph - N/A   Clear
6:00 PM 93.7 °F 97.2 °F 66.9 °F 41% 30.00 in 10.0 mi WSW 8.1 mph - N/A   Clear
6:20 PM 92.7 °F 96.2 °F 67.3 °F 43% 29.99 in 10.0 mi WSW 9.2 mph - N/A   Clear
6:40 PM 92.7 °F 96.7 °F 68.0 °F 44% 30.00 in 10.0 mi SW 9.2 mph - N/A   Clear
7:00 PM 91.4 °F 94.9 °F 67.5 °F 45% 30.00 in 10.0 mi WSW 5.8 mph - N/A   Clear
7:20 PM 89.8 °F 93.8 °F 68.4 °F 49% 30.00 in 10.0 mi WSW 4.6 mph - N/A   Clear
7:40 PM 88.2 °F 92.5 °F 69.1 °F 53% 30.00 in 10.0 mi SW 5.8 mph - N/A   Clear
8:00 PM 86.7 °F 91.0 °F 69.3 °F 56% 30.01 in 10.0 mi SW 3.5 mph - N/A   Clear
8:20 PM 86.4 °F 90.7 °F 69.3 °F 57% 30.01 in 10.0 mi Calm Calm - N/A   Clear
8:40 PM 84.9 °F 89.1 °F 69.6 °F 60% 30.01 in 10.0 mi SSW 3.5 mph - N/A   Clear
9:00 PM 83.5 °F 87.2 °F 69.3 °F 62% 30.02 in 10.0 mi SW 4.6 mph - N/A   Clear
9:20 PM 82.8 °F 86.4 °F 69.4 °F 64% 30.02 in 10.0 mi SW 4.6 mph - N/A   Clear
9:40 PM 81.3 °F 84.8 °F 69.8 °F 68% 30.03 in 10.0 mi SSW 4.6 mph - N/A   Clear
10:00 PM 80.4 °F 83.5 °F 69.6 °F 69% 30.03 in 10.0 mi SSW 4.6 mph - N/A   Clear
10:20 PM 81.3 °F 84.6 °F 69.3 °F 67% 30.04 in 10.0 mi SW 4.6 mph - N/A   Clear
10:40 PM 81.5 °F 84.8 °F 69.3 °F 66% 30.04 in 10.0 mi SW 3.5 mph - N/A   Clear
11:00 PM 80.1 °F 82.9 °F 69.3 °F 69% 30.04 in 10.0 mi SW 4.6 mph - N/A   Clear
11:20 PM 80.6 °F 83.6 °F 69.3 °F 68% 30.04 in 10.0 mi Calm Calm - N/A   Clear
11:40 PM 80.1 °F 82.9 °F 69.1 °F 69% 30.04 in 10.0 mi SW 4.6 mph - N/A   Clear